| time (UTC) | temp F | wind direction | speed MPH | gust MPH | rain 1hr in | rain 24hr in | rain mn in | humidity % | barometer mb |
| 20260904050152 | 72 | 0 | 0.0 | 0.0 | 0.00 | 0.32 | 0.00 | 93 | 1011.3 |
| 20260904040150 | 72 | 0 | 0.0 | 0.0 | 0.00 | 0.32 | 0.00 | 92 | 1011.9 |
| 20260904033150 | 73 | 0 | 0.0 | 0.0 | 0.00 | 0.32 | 0.32 | 91 | 1012.1 |
| 20260904030150 | 73 | 0 | 0.0 | 0.0 | 0.00 | 0.32 | 0.32 | 91 | 1012.2 |
| 20260904023150 | 74 | 0 | 0.0 | 0.0 | 0.00 | 0.32 | 0.32 | 90 | 1012.1 |
| 20260904020152 | 74 | 0 | 0.0 | 0.0 | 0.00 | 0.32 | 0.32 | 90 | 1012.4 |
| 20260904010150 | 75 | 0 | 0.0 | 0.0 | 0.00 | 0.32 | 0.32 | 87 | 1012.5 |
| 20260904003150 | 76 | 0 | 0.0 | 0.0 | 0.00 | 0.32 | 0.32 | 86 | 1012.5 |
| 20260903230151 | 80 | 163 | 0.0 | 1.0 | 0.00 | 0.32 | 0.32 | 76 | 1011.7 |
| 20260903210151 | 82 | 256 | 1.0 | 3.0 | 0.00 | 0.32 | 0.32 | 69 | 1012.0 |
| 20260903190151 | 82 | 200 | 2.0 | 4.0 | 0.00 | 0.32 | 0.32 | 68 | 1012.9 |
| 20260903170151 | 78 | 231 | 1.0 | 5.0 | 0.00 | 0.32 | 0.32 | 75 | 1013.3 |
| 20260903160151 | 77 | 276 | 2.0 | 5.0 | 0.00 | 0.32 | 0.32 | 80 | 1013.9 |
| 20260903150151 | 75 | 272 | 2.0 | 5.0 | 0.00 | 0.32 | 0.32 | 86 | 1014.2 |
| 20260903140151 | 71 | 201 | 1.0 | 4.0 | 0.00 | 0.32 | 0.32 | 95 | 1014.4 |
| 20260903120153 | 68 | 0 | 0.0 | 0.0 | 0.00 | 0.32 | 0.32 | 95 | 1015.7 |
| 20260903110151 | 68 | 71 | 0.0 | 0.0 | 0.00 | 0.31 | 0.31 | 95 | 1015.7 |
| 20260903100151 | 67 | 0 | 0.0 | 0.0 | 0.00 | 0.31 | 0.31 | 95 | 1014.8 |
| 20260903090153 | 67 | 0 | 0.0 | 0.0 | 0.00 | 0.31 | 0.31 | 95 | 1015.2 |
| 20260903080151 | 66 | 0 | 0.0 | 0.0 | 0.00 | 0.31 | 0.31 | 95 | 1015.7 |
| 20260903070151 | 66 | 299 | 1.0 | 3.0 | 0.18 | 0.31 | 0.31 | 95 | 1016.5 |